Location: Grossmotten
(48.5500°N, 15.3833°E)
Time: 20:20:23
(UTC+00:00)

Cosmos 1833 Rocket - Pass Details

Date: 15 November 2019
Orbit: 832 x 840 km, 71.0° (Epoch: 05 December)

Event Time Altitude Azimuth Distance (km) Brightness Sun altitude
Exits shadow 03:30:34 69° 298° (WNW) 890 2.5 -25.6°
Maximum altitude 03:30:36 69° 300° (WNW) 890 2.5 -25.6°
Drops below altitude 10° 03:36:13 10° 25° (NNE) 2,456 5.4 -24.6°
Sets 03:38:41 0° 27° (NNE) 3,395 6.2 -24.2°
